User: anonymous   Login
Location: Christchurch
(43.5330°S, 172.6330°E)
Time: 23:30:43
(UTC+13:00)
Language:

ISS - Orbit

View from above orbital plane
View from above orbital plane
View from above satellite
View from above satellite

Ground track
Ground track

The orbit data is extracted from the following two-line orbital elements,

1 25544U 98067A   19054.54477186  .00016717  00000-0  10270-3 0  9019
2 25544  51.6375 206.2868 0005718  59.3685 300.8030 15.53253893 37590
Epoch (UTC): 23 February 2019 13:04:28
Eccentricity: 0.0005718
inclination: 51.6375°
perigee height: 403 km
apogee height: 411 km
right ascension of ascending node: 206.2868°
argument of perigee: 59.3685°
revolutions per day: 15.53253893
mean anomaly at epoch: 300.8030°
orbit number at epoch: 3759

The dashed part of the orbit path shows where the satellite is in the earth's shadow,  

DLR